Weather History for Port Angeles, WA

Change the Weather History Date:

Monday, August 11, 2014

  Actual Average Record
Temperature  
Mean Temperature 70 °F -  
Max Temperature 86 °F 69 °F 88 °F (1981)
Min Temperature 55 °F 52 °F 42 °F (1966)
Cooling Degree Days 4    
Growing Degree Days 20 (Base 50)    
Moisture  
Dew Point 52 °F    
Average Humidity 54    
Maximum Humidity 77    
Minimum Humidity 33    
Precipitation  
Precipitation 0.00 in - - ()
Sea Level Pressure  
Sea Level Pressure 29.92 in    
Wind  
Wind Speed 3 mph (NNW)    
Max Wind Speed 10 mph    
Max Gust Speed -    
Visibility 10 miles    
Events      
Averages and records for this station are not official NWS values.
T = Trace of Precipitation, MM = Missing Value Source: NWS Daily Summary

Daily Weather History Graph

Daily Weather History Graph

Search for Another Location

Airport:

Trip Planner

Search our weather history database for the weather conditions in past years. The results will help you decide how hot, cold, wet, or windy it might be!

Date:

Astronomy

Aug. 11, 2014 Rise Set
Actual Time 6:03 AM PDT 8:34 PM PDT
Civil Twilight 5:28 AM PDT 9:08 PM PDT
Nautical Twilight 4:44 AM PDT 9:52 PM PDT
Astronomical Twilight 3:53 AM PDT 10:43 PM PDT
Moon 8:53 PM PDT (8/11) 7:24 AM PDT (8/11)
Length of Visible Light 15h 40m
Length of Day
14h 30m
Full, 98% of the Moon is Illuminated
Aug 11
Full
Aug 17
Last Quarter
Aug 25
New
Sep 2
First Quarter
Sep 8
Full

Hourly Weather History & Observations

Time (PDT) Temp. Heat Index Dew Point Humidity Pressure Visibility Wind Dir Wind Speed Gust Speed Precip Events Conditions
12:53 AM 57.0 °F - 50.0 °F 77% 30.00 in 10.0 mi Calm Calm - N/A   Clear
1:53 AM 57.9 °F - 48.0 °F 70% 29.99 in 10.0 mi SSW 3.5 mph - N/A   Clear
2:53 AM 59.0 °F - 46.0 °F 62% 29.99 in 10.0 mi Variable 3.5 mph - N/A   Clear
3:53 AM 55.9 °F - 46.0 °F 69% 29.99 in 10.0 mi Calm Calm - N/A   Clear
4:53 AM 57.9 °F - 46.9 °F 67% 29.98 in 10.0 mi Calm Calm - N/A   Clear
5:53 AM 57.9 °F - 46.9 °F 67% 29.97 in 10.0 mi SW 3.5 mph - N/A   Clear
6:53 AM 63.0 °F - 46.9 °F 56% 29.98 in 10.0 mi South 3.5 mph - N/A   Clear
7:53 AM 77.0 °F - 53.1 °F 43% 29.98 in 10.0 mi ESE 8.1 mph - N/A   Clear
8:53 AM 78.1 °F - 53.1 °F 42% 29.98 in 10.0 mi East 8.1 mph - N/A   Clear
9:53 AM 75.9 °F - 55.9 °F 50% 29.96 in 10.0 mi NE 6.9 mph - N/A   Clear
10:53 AM 77.0 °F - 55.9 °F 48% 29.95 in 10.0 mi East 10.4 mph - N/A   Clear
11:53 AM 78.1 °F - 55.9 °F 46% 29.93 in 10.0 mi Variable 5.8 mph - N/A   Clear
12:53 PM 75.0 °F - 57.0 °F 53% 29.93 in 10.0 mi Calm Calm - N/A   Clear
1:53 PM 82.0 °F 81.7 °F 57.0 °F 42% 29.90 in 10.0 mi North 5.8 mph - N/A   Clear
2:53 PM 84.0 °F 82.5 °F 53.1 °F 34% 29.88 in 10.0 mi NNE 4.6 mph - N/A   Clear
3:53 PM 84.9 °F 83.2 °F 53.1 °F 33% 29.87 in 10.0 mi Variable 4.6 mph - N/A   Clear
4:53 PM 81.0 °F 80.7 °F 55.0 °F 41% 29.86 in 10.0 mi North 4.6 mph - N/A   Clear
5:53 PM 79.0 °F - 55.9 °F 45% 29.85 in 10.0 mi WNW 4.6 mph - N/A   Clear
6:53 PM 78.1 °F - 55.0 °F 45% 29.84 in 10.0 mi WNW 3.5 mph - N/A   Clear
7:53 PM 72.0 °F - 55.0 °F 55% 29.83 in 10.0 mi WNW 6.9 mph - N/A   Clear
8:53 PM 66.9 °F - 53.1 °F 61% 29.84 in 10.0 mi Calm Calm - N/A   Clear
9:53 PM 66.9 °F - 55.0 °F 66% 29.84 in 10.0 mi NW 3.5 mph - N/A   Clear
10:53 PM 64.9 °F - 52.0 °F 63% 29.86 in 10.0 mi WSW 4.6 mph - N/A   Clear
11:53 PM 64.9 °F - 54.0 °F 68% 29.87 in 10.0 mi East 4.6 mph - N/A   Clear